When you browse on this site, cookies collect data to enhance your experience and personalize the content and advertising you see.
Visit our Privacy Policy to learn more. By continuing to use the site, you agree to this use of cookies and data.
  • In Österreich
  • Länderverzeichnis
  • Für 7 Tage
  • Wassertemperatur
  • Satellitenkarten
  • Wetterkarte
  • News
  • Widgets
  • user-avatar
    Anmelden

    Stündliche Wetter Sölden

    Heute, 17 Juli, Mittwoch

    Zeit Temperatur Niederschläge Wind Luftdruck Luftfeuchtigkeit
    00:00 +6°C° 0 mm 1 m/S 583 mmHg 87%
    01:00 +6°C° 0 mm 1 m/S 583 mmHg 86%
    02:00 +5°C° 0 mm 1 m/S 583 mmHg 87%
    03:00 +5°C° 0 mm 1 m/S 583 mmHg 87%
    04:00 +5°C° 0 mm 1 m/S 582 mmHg 87%
    05:00 +7°C° 0 mm 1 m/S 583 mmHg 83%
    06:00 +7°C° 0 mm 0 m/S 584 mmHg 79%
    07:00 +9°C° 0 mm 0 m/S 585 mmHg 73%
    08:00 +11°C° 0 mm 0 m/S 586 mmHg 67%
    09:00 +13°C° 0 mm 1 m/S 586 mmHg 61%
    10:00 +15°C° 0 mm 1 m/S 587 mmHg 55%
    11:00 +15°C° 0.4 mm 1 m/S 587 mmHg 56%
    12:00 +16°C° 0.4 mm 1 m/S 587 mmHg 56%
    13:00 +16°C° 0.4 mm 1 m/S 587 mmHg 57%
    14:00 +16°C° 1.3 mm 1 m/S 586 mmHg 62%
    15:00 +15°C° 1.3 mm 1 m/S 586 mmHg 67%
    16:00 +14°C° 1.3 mm 1 m/S 586 mmHg 73%
    17:00 +13°C° 1.3 mm 1 m/S 585 mmHg 78%
    18:00 +12°C° 1.3 mm 1 m/S 584 mmHg 83%
    19:00 +10°C° 1.3 mm 0 m/S 584 mmHg 88%
    20:00 +10°C° 1.1 mm 1 m/S 583 mmHg 88%
    21:00 +8°C° 1.1 mm 1 m/S 583 mmHg 89%
    22:00 +7°C° 1.1 mm 1 m/S 583 mmHg 89%
    23:00 +7°C° 0.6 mm 1 m/S 582 mmHg 89%

    Morgen, 18 Juli, Donnerstag

    Zeit Temperatur Niederschläge Wind Luftdruck Luftfeuchtigkeit
    00:00 +6°C° 0.6 mm 1 m/S 582 mmHg 90%
    01:00 +6°C° 0.6 mm 1 m/S 582 mmHg 90%
    02:00 +6°C° 0.1 mm 1 m/S 582 mmHg 90%
    03:00 +6°C° 0.1 mm 1 m/S 582 mmHg 90%
    04:00 +6°C° 0.1 mm 1 m/S 582 mmHg 90%
    05:00 +7°C° 0.1 mm 1 m/S 582 mmHg 88%
    06:00 +7°C° 0.1 mm 0 m/S 583 mmHg 87%
    07:00 +8°C° 0.1 mm 0 m/S 583 mmHg 85%
    08:00 +9°C° 0.4 mm 0 m/S 584 mmHg 81%
    09:00 +10°C° 0.4 mm 0 m/S 584 mmHg 77%
    10:00 +11°C° 0.4 mm 0 m/S 585 mmHg 72%
    11:00 +12°C° 1.1 mm 1 m/S 585 mmHg 72%
    12:00 +13°C° 1.1 mm 1 m/S 585 mmHg 72%
    13:00 +13°C° 1.1 mm 1 m/S 585 mmHg 72%
    14:00 +13°C° 1.2 mm 1 m/S 585 mmHg 74%
    15:00 +13°C° 1.2 mm 1 m/S 585 mmHg 76%
    16:00 +12°C° 1.2 mm 1 m/S 585 mmHg 79%
    17:00 +12°C° 0.8 mm 1 m/S 585 mmHg 82%
    18:00 +10°C° 0.8 mm 0 m/S 585 mmHg 85%
    19:00 +10°C° 0.8 mm 0 m/S 584 mmHg 88%
    20:00 +8°C° 0.1 mm 0 m/S 584 mmHg 89%
    21:00 +8°C° 0.1 mm 1 m/S 584 mmHg 90%
    22:00 +6°C° 0.1 mm 1 m/S 584 mmHg 91%
    23:00 +6°C° 0 mm 1 m/S 583 mmHg 91%

    übermorgen, 19 Juli, Freitag

    Zeit Temperatur Niederschläge Wind Luftdruck Luftfeuchtigkeit
    00:00 +6°C° 0 mm 1 m/S 583 mmHg 91%
    01:00 +5°C° 0 mm 1 m/S 583 mmHg 91%
    02:00 +5°C° 0 mm 1 m/S 583 mmHg 90%
    03:00 +5°C° 0 mm 1 m/S 583 mmHg 90%
    04:00 +5°C° 0 mm 1 m/S 583 mmHg 90%
    05:00 +5°C° 0 mm 0 m/S 584 mmHg 88%
    06:00 +7°C° 0 mm 0 m/S 585 mmHg 85%
    07:00 +8°C° 0 mm 0 m/S 585 mmHg 83%
    08:00 +10°C° 0 mm 0 m/S 586 mmHg 75%
    09:00 +12°C° 0 mm 1 m/S 587 mmHg 67%
    10:00 +14°C° 0 mm 1 m/S 588 mmHg 60%
    11:00 +15°C° 0.2 mm 1 m/S 588 mmHg 58%
    12:00 +16°C° 0.2 mm 2 m/S 588 mmHg 57%
    13:00 +16°C° 0.2 mm 2 m/S 588 mmHg 55%
    14:00 +16°C° 0.6 mm 2 m/S 588 mmHg 61%
    15:00 +15°C° 0.6 mm 2 m/S 588 mmHg 68%
    16:00 +14°C° 0.6 mm 2 m/S 587 mmHg 74%
    17:00 +13°C° 0.8 mm 2 m/S 587 mmHg 80%
    18:00 +12°C° 0.8 mm 1 m/S 587 mmHg 86%
    19:00 +11°C° 0.8 mm 1 m/S 587 mmHg 93%
    20:00 +9°C° 0.2 mm 0 m/S 586 mmHg 94%
    21:00 +8°C° 0.2 mm 0 m/S 586 mmHg 95%
    22:00 +6°C° 0.2 mm 0 m/S 585 mmHg 96%
    23:00 +6°C° 0 mm 0 m/S 585 mmHg 96%

    20 Juli, Samstag

    Zeit Temperatur Niederschläge Wind Luftdruck Luftfeuchtigkeit
    00:00 +6°C° 0 mm 0 m/S 585 mmHg 96%
    01:00 +6°C° 0 mm 0 m/S 585 mmHg 96%
    02:00 +6°C° 0 mm 0 m/S 585 mmHg 96%
    03:00 +6°C° 0 mm 0 m/S 585 mmHg 95%
    04:00 +6°C° 0 mm 0 m/S 585 mmHg 95%
    05:00 +7°C° 0 mm 0 m/S 585 mmHg 93%
    06:00 +8°C° 0 mm 0 m/S 586 mmHg 91%
    07:00 +9°C° 0 mm 0 m/S 586 mmHg 90%
    08:00 +12°C° 0 mm 1 m/S 588 mmHg 81%
    09:00 +14°C° 0 mm 1 m/S 589 mmHg 73%
    10:00 +16°C° 0 mm 1 m/S 590 mmHg 65%
    11:00 +16°C° 0.4 mm 1 m/S 590 mmHg 65%
    12:00 +16°C° 0.4 mm 1 m/S 590 mmHg 66%
    13:00 +16°C° 0.4 mm 1 m/S 590 mmHg 66%
    14:00 +16°C° 1.4 mm 1 m/S 589 mmHg 70%
    15:00 +16°C° 1.4 mm 1 m/S 589 mmHg 74%
    16:00 +15°C° 1.4 mm 1 m/S 589 mmHg 78%
    17:00 +14°C° 1.2 mm 1 m/S 589 mmHg 81%
    18:00 +13°C° 1.2 mm 0 m/S 589 mmHg 85%
    19:00 +12°C° 1.2 mm 0 m/S 589 mmHg 89%
    20:00 +10°C° 0.2 mm 0 m/S 589 mmHg 89%
    21:00 +10°C° 0.2 mm 1 m/S 588 mmHg 89%
    22:00 +8°C° 0.2 mm 1 m/S 588 mmHg 90%
    23:00 +8°C° 0 mm 1 m/S 588 mmHg 89%

    21 Juli, Sonntag

    Zeit Temperatur Niederschläge Wind Luftdruck Luftfeuchtigkeit
    00:00 +8°C° 0 mm 1 m/S 588 mmHg 88%
    01:00 +7°C° 0 mm 1 m/S 587 mmHg 87%
    02:00 +7°C° 0 mm 1 m/S 587 mmHg 86%
    03:00 +7°C° 0 mm 1 m/S 587 mmHg 85%
    04:00 +7°C° 0 mm 1 m/S 587 mmHg 84%
    05:00 +8°C° 0 mm 1 m/S 588 mmHg 80%
    06:00 +9°C° 0 mm 0 m/S 589 mmHg 77%
    07:00 +11°C° 0 mm 0 m/S 590 mmHg 73%
    08:00 +13°C° 0 mm 0 m/S 591 mmHg 65%
    09:00 +16°C° 0 mm 1 m/S 592 mmHg 56%
    10:00 +19°C° 0 mm 1 m/S 593 mmHg 47%
    11:00 +20°C° 0 mm 1 m/S 593 mmHg 45%
    12:00 +19°C° 0 mm 2 m/S 594 mmHg 42%
    13:00 +20°C° 0 mm 2 m/S 594 mmHg 39%
    14:00 +20°C° 0.1 mm 2 m/S 594 mmHg 42%
    15:00 +20°C° 0.1 mm 2 m/S 593 mmHg 45%
    16:00 +19°C° 0.1 mm 2 m/S 593 mmHg 47%
    17:00 +19°C° 0.3 mm 1 m/S 592 mmHg 59%
    18:00 +16°C° 0.3 mm 1 m/S 592 mmHg 71%
    19:00 +15°C° 0.3 mm 1 m/S 591 mmHg 83%
    20:00 +13°C° 0.3 mm 1 m/S 591 mmHg 85%
    21:00 +11°C° 0.3 mm 1 m/S 590 mmHg 87%
    22:00 +10°C° 0.3 mm 1 m/S 589 mmHg 89%
    23:00 +9°C° 0 mm 1 m/S 589 mmHg 89%

    22 Juli, Montag

    Zeit Temperatur Niederschläge Wind Luftdruck Luftfeuchtigkeit
    00:00 +9°C° 0 mm 1 m/S 589 mmHg 89%
    01:00 +9°C° 0 mm 1 m/S 589 mmHg 89%
    02:00 +9°C° 0 mm 1 m/S 588 mmHg 89%
    03:00 +8°C° 0 mm 1 m/S 588 mmHg 89%
    04:00 +8°C° 0 mm 1 m/S 588 mmHg 88%
    05:00 +10°C° 0 mm 1 m/S 589 mmHg 84%
    06:00 +11°C° 0 mm 1 m/S 589 mmHg 81%
    07:00 +13°C° 0 mm 1 m/S 590 mmHg 77%
    08:00 +15°C° 0 mm 1 m/S 591 mmHg 67%
    09:00 +18°C° 0 mm 1 m/S 592 mmHg 57%
    10:00 +20°C° 0 mm 1 m/S 593 mmHg 48%
    11:00 +21°C° 0 mm 1 m/S 593 mmHg 44%
    12:00 +22°C° 0 mm 1 m/S 593 mmHg 41%
    13:00 +23°C° 0 mm 1 m/S 593 mmHg 38%
    14:00 +22°C° 0.1 mm 1 m/S 593 mmHg 40%
    15:00 +22°C° 0.1 mm 1 m/S 593 mmHg 43%
    16:00 +22°C° 0.1 mm 1 m/S 592 mmHg 45%
    17:00 +20°C° 0.2 mm 1 m/S 592 mmHg 55%
    18:00 +19°C° 0.2 mm 1 m/S 591 mmHg 65%
    19:00 +16°C° 0.2 mm 1 m/S 590 mmHg 74%
    20:00 +14°C° 0.3 mm 1 m/S 590 mmHg 77%
    21:00 +13°C° 0.3 mm 1 m/S 589 mmHg 80%
    22:00 +10°C° 0.3 mm 2 m/S 588 mmHg 83%
    23:00 +9°C° 0.1 mm 2 m/S 588 mmHg 83%
    Mehr zeigen